"Pseudo-MPEC" for P117V92

Created 2020 Oct 20 20:07:23 UT using Find_Orb

Click here for an explanation of pseudo-MPECs

 
 Astrometry: 
     P117V92  C2020 10 15*WE.lAstrometryVP9(KNWFBVSKvredacted;%egW^#IsCD5XNFWF51
     P117V92  C2020 10 156FImPbO!6,2Uclick]m5#ZF;]J5Zn$lv$I2Jr%5TU%;WlWg)J,+HF51
     P117V92  C2020 10 15HBL7hereW@oforIssOwETQ4c,n$d`5+i`-PE/RA\explanationCF51

Station data:
(F51) Pan-STARRS 1, Haleakala  (N20.707235 W156.255910)  US/Hawaii.
   Observers N. Primak, A. Schultz, S. Watters, J. Thiel, T. Goggia. Measurer
   PS1 Science Consortium. 1.8-m Ritchey-Chrétien + CCD.

Orbital elements:  P117V92
   Perigee 2020 Oct 9.631849 +/- 68.3 TT = 15:09:51 (JD 2459132.131849)
Epoch 2020 Oct 15.0 TT = JDT 2459137.5                        AutoNEOCP
q232426.928 +/- 6.28e+7             (J2000 equator)
H   31.2  G 0.15                    Peri.   90.08409 +/- 90
                                    Node   163.59824 +/- 18
e   1.9398375 +/- 0.274             Incl.   50.58434 +/- 28
From 3 observations 2020 Oct. 15 (31.0 min); mean residual 0".19
Residuals in arcseconds: 
201015 F51  .08+  .17-    201015 F51  .17-  .33+    201015 F51  .08+  .17-    

Ephemerides (geocentric):
Date (UTC) HH   RA              Dec         delta   r     elong  mag " sig PA
---- -- -- --  -------------   -----------  ------ ------ -----  --- ---- ---
2020 10 20 20  23 38 55.013   -12 39 39.06  .01035 1.0037 141.5 22.8  25d   8
2020 10 20 21  23 39 03.266   -12 41 32.49  .01038 1.0037 141.5 22.8  25d   8
2020 10 20 22  23 39 11.479   -12 43 25.02  .01042 1.0037 141.4 22.8  25d   8
2020 10 20 23  23 39 19.651   -12 45 16.68  .01045 1.0037 141.4 22.8  25d   8
2020 10 21 00  23 39 27.783   -12 47 07.46  .01049 1.0037 141.4 22.8  25d   8
2020 10 21 01  23 39 35.875   -12 48 57.37  .01052 1.0037 141.3 22.9  25d   8
2020 10 21 02  23 39 43.927   -12 50 46.43  .01056 1.0037 141.3 22.9  25d   8
2020 10 21 03  23 39 51.941   -12 52 34.64  .01059 1.0037 141.3 22.9  25d   7
2020 10 21 04  23 39 59.916   -12 54 22.01  .01063 1.0038 141.2 22.9  25d   7
2020 10 21 05  23 40 07.853   -12 56 08.54  .01066 1.0038 141.2 22.9  25d   7
2020 10 21 06  23 40 15.752   -12 57 54.25  .01070 1.0038 141.2 22.9  25d   7
2020 10 21 07  23 40 23.614   -12 59 39.14  .01073 1.0038 141.1 22.9  25d   7
2020 10 21 08  23 40 31.439   -13 01 23.23  .01077 1.0038 141.1 22.9  26d   7
2020 10 21 09  23 40 39.227   -13 03 06.51  .01080 1.0038 141.1 22.9  26d   7
2020 10 21 10  23 40 46.979   -13 04 49.00  .01084 1.0038 141.0 22.9  26d   7
2020 10 21 11  23 40 54.695   -13 06 30.70  .01087 1.0038 141.0 22.9  26d   7
2020 10 21 12  23 41 02.375   -13 08 11.63  .01091 1.0039 141.0 22.9  26d   7
2020 10 21 13  23 41 10.020   -13 09 51.78  .01094 1.0039 141.0 23.0  26d   7
2020 10 21 14  23 41 17.630   -13 11 31.17  .01098 1.0039 140.9 23.0  26d   7
2020 10 21 15  23 41 25.206   -13 13 09.80  .01101 1.0039 140.9 23.0  26d   7
2020 10 21 16  23 41 32.747   -13 14 47.68  .01105 1.0039 140.9 23.0  26d   7
2020 10 21 17  23 41 40.255   -13 16 24.81  .01108 1.0039 140.8 23.0  27d   7
2020 10 21 18  23 41 47.729   -13 18 01.21  .01112 1.0039 140.8 23.0  27d   6
2020 10 21 19  23 41 55.169   -13 19 36.88  .01115 1.0039 140.8 23.0  27d   6
2020 10 21 20  23 42 02.577   -13 21 11.83  .01118 1.0039 140.7 23.0  27d   6
2020 10 21 21  23 42 09.952   -13 22 46.06  .01122 1.0040 140.7 23.0  27d   6
2020 10 21 22  23 42 17.295   -13 24 19.58  .01125 1.0040 140.7 23.0  27d   6
2020 10 21 23  23 42 24.606   -13 25 52.40  .01129 1.0040 140.6 23.0  27d   6
2020 10 22 00  23 42 31.885   -13 27 24.52  .01132 1.0040 140.6 23.0  27d   6
2020 10 22 01  23 42 39.133   -13 28 55.95  .01136 1.0040 140.6 23.0  27d   6
2020 10 22 02  23 42 46.350   -13 30 26.70  .01139 1.0040 140.5 23.1  27d   6
2020 10 22 03  23 42 53.536   -13 31 56.76  .01143 1.0040 140.5 23.1  27d   5
2020 10 22 04  23 43 00.691   -13 33 26.15  .01146 1.0040 140.5 23.1  28d   5
2020 10 22 05  23 43 07.816   -13 34 54.88  .01150 1.0041 140.4 23.1  28d   5
2020 10 22 06  23 43 14.911   -13 36 22.95  .01153 1.0041 140.4 23.1  28d   5
2020 10 22 07  23 43 21.977   -13 37 50.36  .01157 1.0041 140.4 23.1  28d   5
2020 10 22 08  23 43 29.013   -13 39 17.12  .01160 1.0041 140.4 23.1  28d   5
2020 10 22 09  23 43 36.019   -13 40 43.24  .01164 1.0041 140.3 23.1  28d   5
2020 10 22 10  23 43 42.997   -13 42 08.72  .01167 1.0041 140.3 23.1  28d   4
2020 10 22 11  23 43 49.947   -13 43 33.57  .01171 1.0041 140.3 23.1  28d   4
2020 10 22 12  23 43 56.868   -13 44 57.80  .01174 1.0041 140.2 23.1  28d   4
2020 10 22 13  23 44 03.761   -13 46 21.40  .01178 1.0041 140.2 23.1  28d   4
2020 10 22 14  23 44 10.626   -13 47 44.38  .01181 1.0042 140.2 23.1  28d   4
2020 10 22 15  23 44 17.463   -13 49 06.76  .01185 1.0042 140.1 23.1  28d   4
2020 10 22 16  23 44 24.273   -13 50 28.53  .01188 1.0042 140.1 23.2  28d   4
2020 10 22 17  23 44 31.056   -13 51 49.70  .01192 1.0042 140.1 23.2  28d   4
2020 10 22 18  23 44 37.812   -13 53 10.27  .01195 1.0042 140.0 23.2  28d   4
2020 10 22 19  23 44 44.542   -13 54 30.26  .01199 1.0042 140.0 23.2  28d   3